Regional Weather Roundup
Issued by NWS San Angelo, TX

Home | Current Version | Previous Version | Text Only | Print | Product List | Glossary On
Versions: 1 2 3 4 5 6 7 8 9 10 11 12 13 14 15 16 17 18 19 20 21 22 23 24 25 26 27 28 29 30 31 32 33 34 35 36 37 38 39 40 41 42 43 44 45 46 47 48 49 50
000
ASUS44 KSJT 020810
RWRSJT
WEST CENTRAL TEXAS REGIONAL WEATHER ROUNDUP
NATIONAL WEATHER SERVICE SAN ANGELO TX
300 AM CDT THU APR 02 2015

NOTE: "FAIR" INDICATES FEW OR NO CLOUDS BELOW 12,000 FEET WITH NO
SIGNIFICANT WEATHER AND/OR OBSTRUCTIONS TO VISIBILITY.

TXZ049-054-064>066-071>073-076>078-098-099-113-114-127-128-139-140-
154-155-168>170-020900
...LOCATIONS ACROSS WEST CENTRAL TEXAS...

CITY           SKY/WX    TMP DP  RH WIND       PRES   REMARKS
SAN ANGELO     CLEAR     68  60  75 S17G25    29.85S
ABILENE        CLEAR     69  58  67 SW22G32   29.81S
DYESS AFB      CLEAR     69  60  72 SW21G32   29.79S
JUNCTION       MOCLDY    68  64  87 SW3       29.90S
SWEETWATER     CLEAR     67  58  72 S16       29.87R
BROWNWOOD      PTCLDY    63  63 100 S7        29.86F
COLEMAN        SUNNY     64  59  86 S9        29.87R
SONORA         CLEAR     66  61  82 S10       29.93F
OZONA          FAIR      64  59  82 S8        29.93S
BRADY          CLEAR     64  64 100 S7        29.87S
$$

TEXAS PANHANDLE/OKLAHOMA PANHANDLE

CITY           SKY/WX    TMP DP  RH WIND       PRES   REMARKS
AMARILLO       MOCLDY    59  25  27 NW13      29.82R
BORGER         CLOUDY    64  34  32 N13       29.81R HAZE
CANADIAN       CLEAR     68  34  28 NW14G20   29.72R
DALHART        CLOUDY    55  35  47 N10       29.86R HAZE
DUMAS          CLOUDY    54  35  48 N12       29.83R HAZE
GUYMON         NOT AVBL
HEREFORD       SUNNY     49  32  53 SW9       29.84R
PAMPA          CLOUDY    60  34  38 NW10      29.80R HAZE
PERRYTON       CLEAR     61  37  42 N26G35    29.74R
$$

SOUTHERN PANHANDLE/SOUTH PLAINS/ROLLING PLAINS

CITY           SKY/WX    TMP DP  RH WIND       PRES   REMARKS
LUBBOCK        PTCLDY    58  34  40 SW10      29.81F
SNYDER         CLEAR     65  57  76 S12       29.84S
CHILDRESS      CLEAR     66  43  43 SW14      29.72S
SEMINOLE       SUNNY     58  35  42 W9        29.86S
$$

PERMIAN BASIN

CITY           SKY/WX    TMP DP  RH WIND       PRES   REMARKS
MIDLAND        CLEAR     65  59  81 S14       29.86F
ODESSA         CLEAR     65  58  78 S14       29.88S
WINK           CLEAR     56  38  50 W9        29.85S
$$

FAR WEST/SOUTHWEST MOUNTAINS/TRANS PECOS

CITY           SKY/WX    TMP DP  RH WIND       PRES   REMARKS
ALPINE         SUNNY     55  35  47 SW10      30.05F
DRYDEN           N/A     63  60  90 N7        29.87F
EL PASO        PTCLDY    71  38  29 W22G30    29.95S
FORT STOCKTON  CLEAR     65  39  38 SW14      29.89S
GUADALUPE PASS CLEAR     61  33  35 W22G28    30.00S
MARFA          CLEAR     45  36  70 NW3       30.04S
PECOS          SUNNY     55  40  57 W6        29.86S
$$

DALLAS/FORT WORTH METROPLEX

CITY           SKY/WX    TMP DP  RH WIND       PRES   REMARKS
DFW AIRPORT    MOCLDY    69  65  86 S25       29.82F
FTW MEACHAM    PTCLDY    70  64  81 S20G26    29.81F
DAL-EXECUTIVE  MOCLDY    69  65  86 S13G24    29.83F
GRAND PRAIRIE  NOT AVBL
ADDISON        CLOUDY    70  65  83 S12G20    29.85F
MESQUITE       PTSUNNY   67  65  91 S16       29.85F
LANCASTER      PTSUNNY   68  64  85 S18G25    29.86F
$$

NORTH CENTRAL TEXAS

CITY           SKY/WX    TMP DP  RH WIND       PRES   REMARKS
SHRMAN/DENISON SUNNY     68  66  93 S20       29.81F
GAINESVILLE    MOCLDY    66  64  92 S14       29.82F
BRIDGEPORT     SUNNY     68  64  88 S12G17    29.82S
DENTON         PTCLDY    68  65  90 S15       29.82S
WAXAHACHIE     CLOUDY    68  67  95 S16G26    29.86F
GRANBURY         N/A     70  64  79 SE9G17    29.85S
$$

WESTERN NORTH TEXAS

CITY           SKY/WX    TMP DP  RH WIND       PRES   REMARKS
WICHITA FALLS  PTCLDY    69  59  70 S22       29.73F
VERNON         NOT AVBL
BRECKENRIDGE   SUNNY     69  59  68 S23       29.80S
COMANCHE       CLEAR     67  67 100 S14G20    29.85S
$$

CENTRAL AND SOUTH CENTRAL TEXAS

CITY           SKY/WX    TMP DP  RH WIND       PRES   REMARKS
AUSTIN/BERGSTM CLOUDY    69  66  90 S9        29.92R
WACO           CLOUDY    68  65  90 S13       29.88F
HILLSBORO      CLOUDY    69  65  86 S17       29.87F
TEMPLE         CLOUDY    70  63  78 S14       29.89F
KILLEEN-GRAY   CLOUDY    69  66  88 S15G21    29.88F
FORT HOOD      CLOUDY    69  65  87 S14       29.87F
GEORGETOWN     CLOUDY    70  64  83 S12       29.90F
LAGO VISTA     DRIZZLE   69  66  91 S10G18    29.93S
SAN MARCOS     CLOUDY    68  64  88 S8        29.94R
NEW BRAUNFELS  CLOUDY    69  67  93 S9        29.91S
RANDOLPH AFB   CLOUDY    68  67  96 S10       29.92F
SAN ANTONIO    CLOUDY    70  67  90 S7        29.93S
STINSON        CLOUDY    69  67  93 S6        29.91S
PLEASANTON     NOT AVBL
LA GRANGE      MOCLDY    71  69  92 S3        29.92S
GIDDINGS       PTSUNNY   69  65  89 S8        29.96F
$$

EAST TEXAS

CITY           SKY/WX    TMP DP  RH WIND       PRES   REMARKS
PARIS          NOT AVBL
CLARKSVILLE    NOT AVBL
TYLER          CLOUDY    68  64  87 S13G20    29.90F
LONGVIEW       CLOUDY    69  64  84 S13       29.91S
PALESTINE      CLOUDY    68  66  92 S12G17    29.93S
NACOGDOCHES    CLOUDY    66  63  88 S12       29.96S
$$

TEXAS HILL COUNTRY AND EDWARDS PLATEAU

CITY           SKY/WX    TMP DP  RH WIND       PRES   REMARKS
LLANO          CLOUDY    70  64  83 CALM      29.92S
HORSESHOE BAY  CLOUDY    70  66  88 S8        29.90F
KERRVILLE      CLOUDY    69  67  93 S12       29.93S
FREDERICKSBRG  CLOUDY    68  65  90 S12       29.91F
ROCKSPRINGS    NOT AVBL
HONDO          CLOUDY    70  67  90 S9        29.93F
UVALDE         SUNNY     66  65  97 E3        29.92S FOG
DEL RIO        CLEAR     66  63  90 E7        29.87F
$$

SOUTHEAST TEXAS

CITY           SKY/WX    TMP DP  RH WIND       PRES   REMARKS
COLLEGE STN    PTCLDY    67  65  93 S10       29.92F
CALDWELL       SUNNY     66  66 100 S7        29.95S
CROCKETT       CLOUDY    70  70 100 S10       29.97S
BRENHAM        CLOUDY    70  68  95 S8        29.94S
HUNTSVILLE     CLOUDY    68  66  93 S10       29.94R
CONROE         CLOUDY    68  66  93 S8        29.95S
HOUSTON BUSH   CLOUDY    71  68  90 S7        29.95S
HOUSTON HOBBY  CLOUDY    71  69  93 S8        29.94F
PERLAND        CLOUDY    72  69  90 S5        29.97S
WHARTON        CLOUDY    71  69  92 S9        29.95S
$$

THE UPPER TEXAS COAST

CITY           SKY/WX    TMP DP  RH WIND       PRES   REMARKS
ORANGE         MOSUNNY   69  66  89 SE6       29.99S
PORT ARTHUR    CLEAR     70  68  93 S10       29.96F
GALVESTON      CLOUDY    70  69  97 S12       29.96F
ANGLETON       CLOUDY    71  69  93 S15       29.94F
BAY CITY       CLOUDY    72  72 100 S8        29.93F FOG
$$

TEXAS COASTAL BEND, RIO GRANDE PLAINS DEEP SOUTH TEXAS

CITY           SKY/WX    TMP DP  RH WIND       PRES   REMARKS
VICTORIA       CLOUDY    72  70  93 S9        29.93S
BEEVILLE       CLOUDY    70  70  99 S10       29.91S
ROCKPORT       CLOUDY    72  69  90 S10       29.91F FOG
PORT ARANSAS   CLOUDY    69  69  99 S13       29.91F FOG
PORT LAVACA    CLOUDY    71  70  96 S10       29.92F FOG
CORPUS CHRISTI CLOUDY    72  69  90 S22       29.90F
KINGSVILLE NAS CLOUDY    71  71 100 S9        29.90F
COTULLA        CLEAR     68  66  93 SE8       29.88F
LAREDO         CLEAR     70  67  90 S9        29.89F
BROWNSVILLE    MOCLDY    72  71  97 S9        29.91F FOG
PORT ISABEL    CLOUDY    73  71  93 S16G23    29.90F FOG
HEBBRONVILLE     N/A     69  67  93 S10       29.91S
MCALLEN        CLOUDY    75  69  81 S14       29.90F
WESLACO        CLOUDY    73  69  88 S12       29.90F
FALFURRIAS     CLOUDY    70  68  93 S7        29.90S
EDINBURG       CLOUDY    74  69  85 S9        29.90F
$$


USA.gov is the U.S. government's official web portal to all federal, state and local government web resources and services.